User: anonymous
Location: Unspecified
(0.0000°N, 0.0000°E)
Time: 10:00:53
(UTC+00:00)
Language:

RISAT 1 - Orbit

View from above orbital plane
View from above orbital plane
View from above satellite
View from above satellite

Ground track
Ground track

The orbit data is extracted from the following two-line orbital elements,

1 38248U 12017A   14238.30353247  .00001512  00000-0  99730-4 0  6360
2 38248 097.5624 244.4698 0002894 024.3252 069.9710 15.08953391128533
Epoch (UTC): 26 August 2014 07:17:05
Eccentricity: 0.0002894
inclination: 97.5624°
perigee height: 537 km
apogee height: 541 km
right ascension of ascending node: 244.4698°
argument of perigee: 24.3252°
revolutions per day: 15.08953391
mean anomaly at epoch: 69.9710°
orbit number at epoch: 12853

The dashed part of the orbit path shows where the satellite is in the earth's shadow,  

DLR